User: anonymous   Login
Location: Unspecified
(0.0000°N, 0.0000°E)
Time: 23:04:58
(UTC+01:00)
Language:

Meteor PRIRODA - Orbit

View from above orbital plane
View from above orbital plane
View from above satellite
View from above satellite

Ground track
Ground track

The orbit data is extracted from the following two-line orbital elements,

1 12585U 81065A   14356.04543057  .00010629  00000-0  55654-3 0  9792
2 12585 097.3336 340.6530 0015525 339.1854 061.2896 15.15887104824439
Epoch (UTC): 22 December 2014 01:05:25
Eccentricity: 0.0015525
inclination: 97.3336°
perigee height: 507 km
apogee height: 529 km
right ascension of ascending node: 340.6530°
argument of perigee: 339.1854°
revolutions per day: 15.15887104
mean anomaly at epoch: 61.2896°
orbit number at epoch: 82443

The dashed part of the orbit path shows where the satellite is in the earth's shadow,  

DLR